Regional Weather Roundup
Issued by NWS

Home | Current Version | Previous Version | Graphics & Text | Print | Product List | Glossary On
Versions: 1 2 3 4 5 6 7 8 9 10 11 12 13 14 15 16 17 18 19 20 21 22 23 24 25 26 27 28 29 30 31 32 33 34 35 36 37 38 39 40 41 42 43 44 45 46 47 48 49 50
000
ASUS43 KOAX 012310
RWRNE

WEATHER ROUNDUP FOR NEBRASKA
NATIONAL WEATHER SERVICE OMAHA NE
500 PM CST SUN MAR 01 2015

NOTES: SATELLITE DATA IS BEING USED TO AUGMENT CLOUD COVER ABOVE
       12000 FEET.
       "FAIR" INDICATES FEW OR NO CLOUDS BELOW 12,000 FEET WITH NO
       SIGNIFICANT WEATHER AND/OR OBSTRUCTIONS TO VISIBILITY.

  * THESE STATIONS DO NOT REPORT WEATHER SUCH AS RAIN...SNOW OR FOG.

NEZ001>004-019>022-054>056-020000-
NEBRASKA PANHANDLE

CITY           SKY/WX    TMP DP  RH WIND       PRES   REMARKS
SCOTTSBLUFF    SUNNY     34  10  37 SW7       30.25S WCI  28
ALLIANCE       SUNNY     34   8  33 W3        30.24S
CHADRON        SUNNY     34   7  32 NW13      30.27R WCI  25
KIMBALL        SUNNY     29  13  52 CALM      30.21S
SIDNEY         SUNNY     32  12  43 N3        30.25S
$$

NEZ057>060-069>072-079>082-020000-
SOUTHWEST NEBRASKA

CITY           SKY/WX    TMP DP  RH WIND       PRES   REMARKS
NORTH PLATTE   SUNNY     39  11  31 W9        30.29S WCI  33
IMPERIAL         N/A     37  12  35 N6        30.29R WCI  32
LEXINGTON      SUNNY     39  12  33 NW5       30.31S
MCCOOK         PTSUNNY   40   9  28 N6        30.30S
OGALLALA       SUNNY     37  11  35 N6        30.29R WCI  32
$$

NEZ005>010-023>029-035>040-094-020000-
NORTH CENTRAL NEBRASKA

CITY           SKY/WX    TMP DP  RH WIND       PRES   REMARKS
VALENTINE      MOSUNNY   34   5  29 NW15G22   30.31R WCI  24
AINSWORTH      MOSUNNY   33   6  32 NW15      30.31R WCI  23
BROKEN BOW     MOSUNNY   39  13  34 NW10      30.30R WCI  32
O`NEILL        PTSUNNY   35  10  34 NW16      30.33R WCI  25
ORD            MOSUNNY   38  10  31 NW13      30.32R WCI  30
THEDFORD       SUNNY     37  11  33 NW10G17   30.29S WCI  30
$$

NEZ041-046>049-061>064-073>077-083>087-020000-
SOUTH CENTRAL NEBRASKA

CITY           SKY/WX    TMP DP  RH WIND       PRES   REMARKS
GRAND ISLAND   SUNNY     39  13  34 N10G18    30.33S WCI  32
AURORA         SUNNY     39  12  33 NW5       30.33S
HASTINGS       SUNNY     39  10  30 N8        30.32S WCI  33
HEBRON         MOSUNNY   38  12  33 N5        30.35S WCI  35
HOLDREGE       SUNNY     38   9  30 NE7       30.31S WCI  32
KEARNEY *      SUNNY     39  12  33 N12       30.32S WCI  32
YORK           SUNNY     39  14  35 NW9       30.34S WCI  33
$$

NEZ011>018-030>034-042>045-020000-
NORTHEAST NEBRASKA

CITY           SKY/WX    TMP DP  RH WIND       PRES   REMARKS
NORFOLK        MOSUNNY   38   8  29 NW20      30.32R WCI  28
ALBION         MOSUNNY   38  10  30 NW10      30.32S WCI  31
BLAIR          SUNNY     39  16  39 NW13      30.33R WCI  31
COLUMBUS *     SUNNY     39  12  33 NW13      30.35S WCI  32
FREMONT        SUNNY     40  14  34 NW16      30.34S WCI  32
TEKAMAH        SUNNY     39  15  37 NW13      30.35S WCI  31
WAYNE          SUNNY     37   9  31 NW14G20   30.34R WCI  29
$$

NEZ050>053-065>068-078-088>093-020000-
SOUTHEAST NEBRASKA

CITY           SKY/WX    TMP DP  RH WIND       PRES   REMARKS
LINCOLN        SUNNY     40  13  33 VRB5      30.37R
OMAHA EPPLEY   MOSUNNY   39  16  39 NW12      30.35S WCI  32
BEATRICE       SUNNY     37  17  44 NW7       30.35F WCI  32
FALLS CITY     MOSUNNY   38  18  44 NW5       30.36S WCI  34
NEBRASKA CITY  SUNNY     37  10  32 N6        30.35S WCI  32
PLATTSMOUTH    SUNNY     37  11  33 W6        30.35S WCI  33
$$

NEZ044-045-051>053-067-020000-
OMAHA AREA

CITY           SKY/WX    TMP DP  RH WIND       PRES   REMARKS
OMAHA EPPLEY   MOSUNNY   39  16  39 NW12      30.35S WCI  32
BLAIR          SUNNY     39  16  39 NW13      30.33R WCI  31
FREMONT        SUNNY     40  14  34 NW16      30.34S WCI  32
MILLARD        MOSUNNY   40  15  37 NW12      30.35R WCI  33
OFFUTT AFB     MOSUNNY   39  15  38 NW6       30.35R WCI  35
PLATTSMOUTH    SUNNY     37  11  33 W6        30.35S WCI  33
WAHOO          FAIR      40  13  32 NW9       30.34S WCI  35
$$



USA.gov is the U.S. government's official web portal to all federal, state and local government web resources and services.